GW5161 Weather Reports


time (UTC)temp
C
wind
direction
speed
KPH
gust
KPH
rain 1hr
cm
rain 24hr
cm
rain mn
cm
humidity
%
barometer
mb
20260507154025 17 106 6.4 9.7 0.00 0.00 0.00 73 1016.3
20260507153522 18 128 3.2 6.4 0.00 0.00 0.00 71 1016.2
20260507153018 18 16 0.0 3.2 0.00 0.00 0.00 69 1016.3
20260507152514 18 10 1.6 1.6 0.00 0.00 0.00 71 1016.3
20260507152011 18 3 1.6 1.6 0.00 0.00 0.00 73 1016.4
20260507151507 17 16 0.0 3.2 0.00 0.00 0.00 75 1016.3
20260507151004 17 64 1.6 3.2 0.00 0.00 0.00 72 1016.3
20260507150501 18 94 3.2 4.8 0.00 0.00 0.00 69 1016.1
20260507145957 17 35 0.0 1.6 0.00 0.00 0.00 74 1016.1
20260507145452 17 330 0.0 1.6 0.00 0.00 0.00 77 1016.4
20260507144950 17 87 1.6 3.2 0.00 0.00 0.00 77 1016.2
20260507144446 17 324 1.6 3.2 0.00 0.00 0.00 78 1016.2
20260507143943 16 37 0.0 3.2 0.00 0.00 0.00 79 1016.2
20260507143441 16 35 0.0 1.6 0.00 0.00 0.00 79 1016.0
20260507142937 15 36 0.0 3.2 0.00 0.00 0.00 79 1016.0
20260507142433 15 83 3.2 3.2 0.00 0.00 0.00 78 1016.2
20260507141931 15 74 1.6 3.2 0.00 0.00 0.00 79 1015.9
20260507141426 15 53 1.6 1.6 0.00 0.00 0.00 80 1015.8
20260507140923 15 98 3.2 3.2 0.00 0.00 0.00 80 1015.8
20260507140420 15 58 1.6 3.2 0.00 0.00 0.00 80 1015.9
20260507135918 15 58 1.6 1.6 0.00 0.00 0.00 81 1015.6
20260507135414 15 50 0.0 1.6 0.00 0.00 0.00 80 1015.7
20260507134912 15 18 0.0 0.0 0.00 0.00 0.00 83 1015.7
20260507134408 15 35 0.0 0.0 0.00 0.00 0.00 84 1015.6
20260507133904 14 41 0.0 0.0 0.00 0.00 0.00 86 1015.4
20260507133400 13 33 0.0 0.0 0.00 0.00 0.00 87 1015.3
20260507132859 13 33 0.0 0.0 0.00 0.00 0.00 88 1015.5
20260507132355 12 41 0.0 0.0 0.00 0.00 0.00 89 1015.4
20260507131852 12 45 0.0 1.6 0.00 0.00 0.00 89 1015.4
20260507131348 12 63 1.6 1.6 0.00 0.00 0.00 89 1015.4
20260507130845 12 57 1.6 1.6 0.00 0.00 0.00 88 1015.3
20260507130342 12 44 0.0 0.0 0.00 0.00 0.00 88 1015.2
20260507125842 12 44 0.0 0.0 0.00 0.00 0.00 88 1015.2
20260507125338 12 43 0.0 0.0 0.00 0.00 0.00 88 1015.2
20260507124836 12 45 0.0 1.6 0.00 0.00 0.00 89 1015.3
20260507124332 12 47 0.0 1.6 0.00 0.00 0.00 89 1015.1
20260507123831 12 51 1.6 1.6 0.00 0.00 0.00 89 1015.1
20260507123328 12 45 0.0 1.6 0.00 0.00 0.00 89 1015.2
20260507122824 12 41 0.0 1.6 0.00 0.00 0.00 89 1015.2
20260507122319 12 41 0.0 0.0 0.00 0.00 0.00 89 1015.2
20260507121815 12 41 0.0 0.0 0.00 0.00 0.00 89 1015.2
20260507121311 12 41 0.0 0.0 0.00 0.00 0.00 89 1015.2
20260507120808 12 41 0.0 0.0 0.00 0.00 0.00 89 1015.3
20260507120304 12 41 0.0 0.0 0.00 0.00 0.00 89 1015.3
20260507115801 12 15 0.0 1.6 0.00 0.00 0.00 89 1015.2
20260507115256 12 20 0.0 0.0 0.00 0.00 0.00 89 1015.1
20260507114752 12 6 1.6 1.6 0.00 0.00 0.00 89 1015.3
20260507114250 12 17 0.0 0.0 0.00 0.00 0.00 89 1015.1
20260507113747 12 13 0.0 0.0 0.00 0.00 0.00 89 1015.3
20260507113244 12 12 1.6 1.6 0.00 0.00 0.00 89 1015.3
20260507112742 12 15 0.0 0.0 0.00 0.00 0.00 89 1015.3
20260507112238 12 15 0.0 0.0 0.00 0.00 0.00 89 1015.4
20260507111736 12 14 0.0 0.0 0.00 0.00 0.00 89 1015.5
20260507111232 12 7 0.0 0.0 0.00 0.00 0.00 88 1015.5
20260507110728 12 334 1.6 1.6 0.00 0.00 0.00 88 1015.7
20260507110225 13 24 0.0 0.0 0.00 0.00 0.00 87 1015.7
20260507105722 13 32 0.0 0.0 0.00 0.00 0.00 87 1015.6
20260507105218 12 54 1.6 1.6 0.00 0.00 0.00 87 1015.6
20260507104716 12 54 1.6 1.6 0.00 0.00 0.00 87 1015.7
20260507104212 13 38 0.0 0.0 0.00 0.00 0.00 87 1015.6
20260507103708 13 39 0.0 0.0 0.00 0.00 0.00 87 1015.5
20260507103204 13 42 0.0 3.2 0.00 0.00 0.00 86 1015.6
20260507102701 12 42 0.0 1.6 0.00 0.00 0.00 87 1015.8
20260507102158 12 24 0.0 0.0 0.00 0.00 0.00 86 1015.5
20260507101653 12 13 0.0 0.0 0.00 0.00 0.00 86 1015.7
20260507101149 12 0 0.0 0.0 0.00 0.00 0.00 86 1015.6
20260507100647 13 30 0.0 0.0 0.00 0.00 0.00 85 1015.6
20260507100145 13 31 0.0 1.6 0.00 0.00 0.00 85 1015.5
20260507095643 13 25 0.0 0.0 0.00 0.00 0.00 85 1015.8
20260507095139 13 28 0.0 0.0 0.00 0.00 0.00 85 1015.7
20260507094635 13 32 0.0 0.0 0.00 0.00 0.00 85 1015.7
20260507094132 13 26 0.0 1.6 0.00 0.00 0.00 85 1015.8
20260507093629 13 15 1.6 1.6 0.00 0.00 0.00 85 1015.7
20260507093128 13 21 0.0 0.0 0.00 0.00 0.00 85 1015.8
20260507092624 13 21 0.0 1.6 0.00 0.00 0.00 85 1015.9
20260507092121 13 36 0.0 0.0 0.00 0.00 0.00 84 1015.9
20260507091618 13 31 0.0 0.0 0.00 0.00 0.00 85 1016.2
20260507091114 13 30 0.0 1.6 0.00 0.00 0.00 85 1016.2
20260507090610 13 21 0.0 1.6 0.00 0.00 0.00 85 1016.2
20260507090107 13 4 0.0 1.6 0.00 0.00 0.00 85 1016.3
20260507085604 13 18 0.0 0.0 0.00 0.00 0.00 85 1016.3
20260507085100 13 43 0.0 1.6 0.00 0.00 0.00 85 1016.4
20260507084557 13 26 0.0 0.0 0.00 0.00 0.00 85 1016.4
20260507084054 13 42 0.0 1.6 0.00 0.00 0.00 85 1016.5
20260507083550 13 3 0.0 0.0 0.00 0.00 0.00 85 1016.6
20260507083048 13 47 0.0 1.6 0.00 0.00 0.00 84 1016.5
20260507082544 13 39 0.0 1.6 0.00 0.00 0.00 85 1016.4
20260507082041 13 24 0.0 0.0 0.00 0.00 0.00 84 1016.5
20260507081536 13 32 0.0 0.0 0.00 0.00 0.00 84 1016.8
20260507081034 13 350 1.6 1.6 0.00 0.00 0.00 84 1016.6
20260507080529 13 6 0.0 0.0 0.00 0.00 0.00 83 1016.8
20260507080026 13 359 0.0 1.6 0.00 0.00 0.00 83 1016.7
20260507075521 14 3 0.0 0.0 0.00 0.00 0.00 83 1016.7
20260507075018 14 345 1.6 1.6 0.00 0.00 0.00 83 1016.4
20260507074514 14 5 0.0 0.0 0.00 0.00 0.00 82 1016.4
20260507074014 14 350 1.6 1.6 0.00 0.00 0.00 83 1016.7
20260507073509 14 0 0.0 1.6 0.00 0.00 0.00 82 1016.4
20260507073006 14 0 0.0 0.0 0.00 0.00 0.00 82 1016.6
20260507072503 14 339 1.6 1.6 0.00 0.00 0.00 82 1016.6
20260507072000 14 1 0.0 0.0 0.00 0.00 0.00 81 1016.5
20260507071457 14 350 1.6 1.6 0.00 0.00 0.00 81 1016.6
20260507070954 14 345 1.6 1.6 0.00 0.00 0.00 81 1016.6
20260507070451 14 341 1.6 3.2 0.00 0.00 0.00 81 1016.6
20260507065948 14 344 1.6 3.2 0.00 0.00 0.00 80 1016.6
20260507065444 15 315 1.6 3.2 0.00 0.00 0.00 80 1016.9
20260507064941 15 315 3.2 3.2 0.00 0.00 0.00 80 1016.7
20260507064440 15 328 3.2 3.2 0.00 0.00 0.00 80 1016.7
20260507063937 15 357 0.0 3.2 0.00 0.00 0.00 80 1016.7
20260507063434 15 312 1.6 1.6 0.00 0.00 0.00 79 1016.7
20260507062931 15 1 0.0 1.6 0.00 0.00 0.00 80 1017.0
20260507062428 15 351 0.0 3.2 0.00 0.00 0.00 79 1016.9
20260507061926 15 359 0.0 1.6 0.00 0.00 0.00 79 1016.7
20260507061424 15 334 1.6 1.6 0.00 0.00 0.00 78 1016.9
20260507060922 15 2 0.0 0.0 0.00 0.00 0.00 78 1016.8
20260507060418 15 349 1.6 1.6 0.00 0.00 0.00 78 1016.9
20260507055915 15 335 1.6 3.2 0.00 0.00 0.00 78 1017.0
20260507055410 15 355 0.0 1.6 0.00 0.00 0.00 77 1016.7
20260507054907 15 344 1.6 3.2 0.00 0.00 0.00 77 1016.7
20260507054403 15 355 0.0 1.6 0.00 0.00 0.00 76 1016.8
20260507053901 15 327 1.6 3.2 0.00 0.00 0.00 76 1016.7
20260507053358 15 306 3.2 3.2 0.00 0.00 0.00 76 1016.9
20260507052857 15 340 1.6 3.2 0.00 0.00 0.00 77 1016.9
20260507052354 15 356 1.6 3.2 0.00 0.00 0.00 77 1016.6
20260507051851 15 350 1.6 3.2 0.00 0.00 0.00 77 1016.7
20260507051348 15 346 1.6 1.6 0.00 0.00 0.00 77 1016.8
20260507050845 15 337 1.6 1.6 0.00 0.00 0.00 77 1016.7
20260507050342 15 340 1.6 3.2 0.00 0.00 0.00 77 1016.6
20260507045839 15 348 1.6 1.6 0.00 0.00 0.00 77 1016.7
20260507045335 15 341 3.2 3.2 0.00 0.00 0.00 77 1016.8
20260507044832 15 348 0.0 1.6 0.00 0.00 0.00 77 1016.7
20260507044329 15 347 1.6 3.2 0.00 0.00 0.00 77 1016.9
20260507043824 15 344 1.6 3.2 0.00 0.00 0.00 76 1016.6
20260507043321 15 307 1.6 3.2 0.00 0.00 0.00 76 1016.8
20260507042818 15 325 1.6 3.2 0.00 0.00 0.00 76 1016.9
20260507042313 15 308 1.6 1.6 0.00 0.00 0.00 76 1016.6
20260507041811 15 359 1.6 3.2 0.00 0.00 0.00 76 1016.6
20260507041307 15 323 1.6 3.2 0.00 0.00 0.00 75 1016.7
20260507040804 15 337 0.0 3.2 0.00 0.00 0.00 75 1016.6
20260507040300 15 323 1.6 3.2 0.00 0.00 0.00 74 1016.7
20260507035756 15 314 1.6 3.2 0.00 0.00 0.00 74 1016.6
20260507035252 16 338 1.6 3.2 0.00 0.00 0.00 73 1016.5
20260507034750 16 341 1.6 3.2 0.00 0.00 0.00 73 1016.5
20260507034246 16 4 1.6 4.8 0.00 0.00 0.00 73 1016.4
20260507033745 16 357 1.6 4.8 0.00 0.00 0.00 73 1016.2
20260507033242 16 302 3.2 4.8 0.00 0.00 0.00 73 1016.2
20260507032739 16 302 3.2 6.4 0.00 0.00 0.00 74 1016.3
20260507032235 16 309 3.2 4.8 0.00 0.00 0.00 74 1016.1
20260507031732 16 306 3.2 6.4 0.00 0.00 0.00 74 1016.3
20260507031228 16 297 3.2 4.8 0.00 0.00 0.00 73 1016.2
20260507030725 16 291 3.2 4.8 0.00 0.00 0.00 73 1016.0
20260507030223 16 312 3.2 6.4 0.00 0.00 0.00 72 1016.0
20260507025720 16 231 1.6 4.8 0.00 0.00 0.00 72 1016.0
20260507025217 16 304 3.2 3.2 0.00 0.00 0.00 71 1016.0
20260507024715 16 289 3.2 4.8 0.00 0.00 0.00 71 1016.1
20260507024212 17 328 3.2 6.4 0.00 0.00 0.00 71 1015.9
20260507023707 17 332 1.6 4.8 0.00 0.00 0.00 70 1015.8
20260507023205 17 349 1.6 4.8 0.00 0.00 0.00 69 1015.8
20260507022702 17 345 1.6 4.8 0.00 0.00 0.00 69 1015.8
20260507022157 17 358 1.6 3.2 0.00 0.00 0.00 68 1015.8
20260507021654 18 354 3.2 3.2 0.00 0.00 0.00 67 1015.7
20260507021149 18 299 3.2 3.2 0.00 0.00 0.00 67 1015.5
20260507020648 18 303 4.8 6.4 0.00 0.00 0.00 66 1015.5
20260507020143 18 309 1.6 4.8 0.00 0.00 0.00 67 1015.5
20260507015643 18 324 3.2 4.8 0.00 0.00 0.00 67 1015.4
20260507015139 18 358 1.6 4.8 0.00 0.00 0.00 66 1015.6
20260507014636 18 296 3.2 6.4 0.00 0.00 0.00 65 1015.5
20260507014132 20 4 0.0 6.4 0.00 0.00 0.00 63 1015.5
20260507013629 20 336 1.6 1.6 0.00 0.00 0.00 62 1015.5
20260507013125 20 299 1.6 9.7 0.00 0.00 0.00 62 1015.3
20260507012623 20 99 0.0 4.8 0.00 0.00 0.00 63 1015.3
20260507012118 20 61 1.6 6.4 0.00 0.00 0.00 63 1015.4
20260507011617 20 301 3.2 6.4 0.00 0.00 0.00 62 1015.3
20260507011113 20 359 1.6 6.4 0.00 0.00 0.00 62 1015.5
20260507010608 20 358 3.2 3.2 0.00 0.00 0.00 64 1015.4
20260507010104 20 257 3.2 6.4 0.00 0.00 0.00 66 1015.3
20260507005602 20 21 3.2 4.8 0.00 0.00 0.00 65 1015.3
20260507005057 20 290 4.8 9.7 0.00 0.00 0.00 65 1015.3
20260507004554 20 242 1.6 6.4 0.00 0.00 0.00 64 1015.2
20260507004052 20 200 4.8 6.4 0.00 0.00 0.00 61 1015.3
20260507003548 20 333 1.6 4.8 0.00 0.00 0.00 61 1015.5
20260507003043 20 305 4.8 6.4 0.00 0.00 0.00 62 1015.1
20260507002540 21 274 3.2 6.4 0.00 0.00 0.00 60 1015.2
20260507002036 20 306 3.2 6.4 0.00 0.00 0.00 61 1015.2
20260507001533 21 298 3.2 6.4 0.00 0.00 0.00 60 1015.2
20260507001030 21 220 3.2 6.4 0.00 0.00 0.00 59 1015.0
20260507000526 21 321 4.8 9.7 0.00 0.00 0.00 58 1015.1
20260507000022 21 239 1.6 4.8 0.00 0.00 0.00 56 1015.2
20260506235519 22 1 3.2 6.4 0.00 0.00 0.00 53 1015.0
20260506235015 22 297 3.2 4.8 0.00 0.00 0.00 51 1015.0
20260506234513 22 356 1.6 6.4 0.00 0.00 0.00 52 1015.0
20260506234009 22 3 3.2 11.3 0.00 0.00 0.00 52 1015.2
20260506233506 22 329 3.2 4.8 0.00 0.00 0.00 52 1015.0
20260506233003 22 310 1.6 11.3 0.00 0.00 0.00 52 1014.9
20260506232459 22 255 3.2 6.4 0.00 0.00 0.00 51 1015.0
20260506231955 22 341 1.6 6.4 0.00 0.00 0.00 51 1015.1
20260506231452 22 315 6.4 6.4 0.00 0.00 0.00 48 1015.2
20260506230950 22 0 0.0 4.8 0.00 0.00 0.00 50 1015.0
20260506230446 22 329 1.6 9.7 0.00 0.00 0.00 47 1015.1
20260506225942 22 3 0.0 11.3 0.00 0.00 0.00 46 1015.2
20260506225440 22 335 4.8 6.4 0.00 0.00 0.00 45 1015.4
20260506224936 22 309 4.8 6.4 0.00 0.00 0.00 45 1015.2
20260506224434 22 344 1.6 3.2 0.00 0.00 0.00 46 1015.3
20260506223930 22 9 1.6 9.7 0.00 0.00 0.00 47 1015.3
20260506223426 22 290 3.2 4.8 0.00 0.00 0.00 45 1015.7
20260506222923 22 347 1.6 3.2 0.00 0.00 0.00 46 1015.5
20260506222420 22 345 1.6 4.8 0.00 0.00 0.00 44 1015.6
20260506221917 22 0 0.0 6.4 0.00 0.00 0.00 44 1015.6
20260506221414 22 323 1.6 3.2 0.00 0.00 0.00 46 1015.7
20260506220912 22 308 3.2 6.4 0.00 0.00 0.00 47 1015.9
20260506220407 23 317 4.8 9.7 0.00 0.00 0.00 46 1015.6
20260506215904 22 196 3.2 3.2 0.00 0.00 0.00 47 1015.9
20260506215400 22 326 4.8 6.4 0.00 0.00 0.00 49 1015.9
20260506214856 22 262 1.6 4.8 0.00 0.00 0.00 50 1015.9
20260506214353 22 327 6.4 9.7 0.00 0.00 0.00 50 1016.1
20260506213851 22 263 4.8 6.4 0.00 0.00 0.00 51 1015.9
20260506213348 22 271 6.4 9.7 0.00 0.00 0.00 52 1016.1
20260506212845 22 236 4.8 11.3 0.00 0.00 0.00 51 1016.1
20260506212341 22 166 3.2 4.8 0.00 0.00 0.00 52 1016.1
20260506211836 22 297 3.2 9.7 0.00 0.00 0.00 55 1016.3
20260506211332 21 26 1.6 11.3 0.00 0.00 0.00 56 1016.2
20260506210830 22 331 4.8 11.3 0.00 0.00 0.00 57 1016.6
20260506210326 22 314 6.4 9.7 0.00 0.00 0.00 56 1016.3
20260506205824 22 58 1.6 6.4 0.00 0.00 0.00 57 1016.2
20260506205320 22 5 1.6 9.7 0.00 0.00 0.00 56 1016.2
20260506204816 22 256 3.2 4.8 0.00 0.00 0.00 57 1016.2
20260506204314 22 291 3.2 14.5 0.00 0.00 0.00 56 1016.5
20260506203811 22 148 3.2 4.8 0.00 0.00 0.00 57 1016.5
20260506203309 22 351 1.6 9.7 0.00 0.00 0.00 58 1016.6
20260506202805 22 333 3.2 11.3 0.00 0.00 0.00 56 1016.6
20260506202305 22 351 4.8 12.9 0.00 0.00 0.00 55 1016.6
20260506201758 22 121 4.8 11.3 0.00 0.00 0.00 56 1016.6
20260506201255 22 255 4.8 4.8 0.00 0.00 0.00 55 1016.6
20260506200753 23 187 6.4 12.9 0.00 0.00 0.00 53 1016.8
20260506200249 22 6 1.6 3.2 0.00 0.00 0.00 55 1017.0
20260506195745 23 8 3.2 4.8 0.00 0.00 0.00 54 1017.0
20260506195242 22 171 3.2 4.8 0.00 0.00 0.00 56 1017.1
20260506194739 22 261 3.2 9.7 0.00 0.00 0.00 56 1017.0
20260506194235 22 290 3.2 9.7 0.00 0.00 0.00 57 1017.0
20260506193734 22 111 1.6 6.4 0.00 0.00 0.00 56 1017.3
20260506193230 22 300 3.2 6.4 0.00 0.00 0.00 57 1017.0
20260506192726 21 6 3.2 6.4 0.00 0.00 0.00 58 1017.2
20260506192223 21 320 3.2 6.4 0.00 0.00 0.00 59 1017.2
20260506191720 21 70 1.6 4.8 0.00 0.00 0.00 61 1017.3
20260506191216 22 253 4.8 9.7 0.00 0.00 0.00 58 1017.3
20260506190714 22 30 3.2 12.9 0.00 0.00 0.00 58 1017.5
20260506190210 21 242 1.6 6.4 0.00 0.00 0.00 60 1017.4
20260506185707 21 277 3.2 6.4 0.00 0.00 0.00 60 1017.5
20260506185203 20 3 1.6 4.8 0.00 0.00 0.00 62 1017.6
20260506184656 21 195 8.0 12.9 0.00 0.00 0.00 60 1017.4
20260506184153 21 168 3.2 12.9 0.00 0.00 0.00 59 1017.4
20260506183649 22 3 3.2 4.8 0.00 0.00 0.00 57 1017.7
20260506183145 21 316 0.0 4.8 0.00 0.00 0.00 59 1017.6
20260506182643 21 308 4.8 6.4 0.00 0.00 0.00 58 1017.5
20260506182139 21 137 3.2 4.8 0.00 0.00 0.00 59 1017.7
20260506181637 21 159 3.2 3.2 0.00 0.00 0.00 58 1017.6
20260506181134 22 88 3.2 6.4 0.00 0.00 0.00 58 1017.6
20260506180631 21 27 0.0 9.7 0.00 0.00 0.00 58 1017.6
20260506180127 20 337 3.2 6.4 0.00 0.00 0.00 62 1017.6
20260506175624 20 177 4.8 11.3 0.00 0.00 0.00 61 1017.7
20260506175120 21 175 4.8 9.7 0.00 0.00 0.00 60 1017.6
20260506174619 21 191 3.2 4.8 0.00 0.00 0.00 59 1017.5
20260506174115 21 24 0.0 4.8 0.00 0.00 0.00 61 1017.7
20260506173613 20 21 0.0 3.2 0.00 0.00 0.00 62 1017.7
20260506173109 20 55 1.6 4.8 0.00 0.00 0.00 64 1017.6
20260506172607 20 156 4.8 4.8 0.00 0.00 0.00 63 1017.7
20260506172103 20 247 4.8 6.4 0.00 0.00 0.00 64 1017.8
20260506171601 18 149 6.4 11.3 0.00 0.00 0.00 68 1017.7
20260506171058 18 159 6.4 14.5 0.00 0.00 0.00 67 1017.6
20260506170555 20 142 3.2 6.4 0.00 0.00 0.00 64 1017.9
20260506170053 20 153 1.6 4.8 0.00 0.00 0.00 63 1017.7
20260506165551 20 221 3.2 9.7 0.00 0.00 0.00 60 1017.8
20260506165042 20 192 3.2 4.8 0.00 0.00 0.00 58 1017.6
20260506164539 21 278 3.2 4.8 0.00 0.00 0.00 58 1017.7
20260506164036 20 5 0.0 3.2 0.00 0.00 0.00 61 1017.8
20260506163532 20 70 0.0 4.8 0.00 0.00 0.00 61 1018.1
20260506163028 20 267 1.6 3.2 0.00 0.00 0.00 63 1017.8
20260506162524 19 94 1.6 3.2 0.00 0.00 0.00 65 1017.8
20260506162021 18 93 3.2 6.4 0.00 0.00 0.00 64 1017.8
20260506161518 18 43 1.6 6.4 0.00 0.00 0.00 65 1017.9
20260506161010 18 22 0.0 3.2 0.00 0.00 0.00 67 1017.8
20260506160508 17 65 3.2 9.7 0.00 0.00 0.00 68 1017.8
20260506160005 17 87 3.2 6.4 0.00 0.00 0.00 70 1017.9
20260506155503 16 120 3.2 3.2 0.00 0.00 0.00 72 1018.0